| time (UTC) | temp C | wind direction | speed KPH | gust KPH | rain 1hr cm | rain 24hr cm | rain mn cm | humidity % | barometer mb |
| 20260902050007 | 15 | 0 | 0.0 | 0.0 | 0.00 | 0.00 | 0.00 | 76 | 1017.5 |
| 20260902045403 | 15 | 0 | 0.0 | 0.0 | 0.00 | 0.00 | 0.00 | 76 | 1017.5 |
| 20260902044503 | 15 | 55 | 0.0 | 1.6 | 0.00 | 0.00 | 0.00 | 76 | 1017.4 |
| 20260902043605 | 16 | 46 | 0.0 | 1.6 | 0.00 | 0.00 | 0.00 | 76 | 1017.5 |
| 20260902042705 | 16 | 46 | 0.0 | 1.6 | 0.00 | 0.00 | 0.00 | 76 | 1017.6 |
| 20260902041803 | 16 | 0 | 0.0 | 0.0 | 0.00 | 0.00 | 0.00 | 75 | 1017.7 |
| 20260902040903 | 16 | 279 | 0.0 | 1.6 | 0.00 | 0.00 | 0.00 | 75 | 1017.8 |
| 20260902040004 | 16 | 298 | 0.0 | 1.6 | 0.00 | 0.00 | 0.00 | 75 | 1017.6 |
| 20260902035618 | 16 | 269 | 0.0 | 1.6 | 0.00 | 0.00 | 0.00 | 75 | 1017.8 |
| 20260902034505 | 16 | 269 | 0.0 | 1.6 | 0.00 | 0.00 | 0.00 | 74 | 1017.6 |
| 20260902033604 | 16 | 269 | 0.0 | 1.6 | 0.00 | 0.00 | 0.00 | 74 | 1017.6 |
| 20260902032703 | 16 | 270 | 0.0 | 3.2 | 0.00 | 0.00 | 0.00 | 74 | 1017.4 |
| 20260902031803 | 16 | 69 | 0.0 | 3.2 | 0.00 | 0.00 | 0.00 | 74 | 1017.5 |
| 20260902030906 | 16 | 268 | 0.0 | 1.6 | 0.00 | 0.00 | 0.00 | 73 | 1017.7 |
| 20260902030220 | 16 | 300 | 0.0 | 1.6 | 0.00 | 0.00 | 0.00 | 73 | 1017.5 |
| 20260902025403 | 16 | 266 | 0.0 | 3.2 | 0.00 | 0.00 | 0.00 | 73 | 1017.6 |
| 20260902024504 | 16 | 248 | 0.0 | 3.2 | 0.00 | 0.00 | 0.00 | 73 | 1017.7 |
| 20260902023604 | 16 | 269 | 0.0 | 4.8 | 0.00 | 0.00 | 0.00 | 73 | 1017.8 |
| 20260902022704 | 16 | 268 | 0.0 | 3.2 | 0.00 | 0.00 | 0.00 | 72 | 1017.7 |
| 20260902021805 | 17 | 271 | 0.0 | 1.6 | 0.00 | 0.00 | 0.00 | 72 | 1017.9 |
| 20260902021118 | 17 | 271 | 0.0 | 3.2 | 0.00 | 0.00 | 0.00 | 72 | 1017.7 |
| 20260902020003 | 17 | 289 | 0.0 | 3.2 | 0.00 | 0.00 | 0.00 | 71 | 1017.7 |
| 20260902015404 | 17 | 284 | 0.0 | 3.2 | 0.00 | 0.00 | 0.00 | 71 | 1017.8 |
| 20260902014716 | 17 | 273 | 0.0 | 1.6 | 0.00 | 0.00 | 0.00 | 70 | 1017.7 |
| 20260902013604 | 17 | 300 | 0.0 | 3.2 | 0.00 | 0.00 | 0.00 | 69 | 1017.9 |
| 20260902012704 | 17 | 271 | 0.0 | 3.2 | 0.00 | 0.00 | 0.00 | 69 | 1017.9 |
| 20260902011804 | 17 | 269 | 0.0 | 3.2 | 0.00 | 0.00 | 0.00 | 68 | 1017.9 |
| 20260902011118 | 17 | 267 | 0.0 | 3.2 | 0.00 | 0.00 | 0.00 | 68 | 1017.9 |
| 20260902010219 | 17 | 264 | 0.0 | 3.2 | 0.00 | 0.00 | 0.00 | 67 | 1017.9 |
| 20260902005405 | 17 | 268 | 0.0 | 3.2 | 0.00 | 0.00 | 0.00 | 67 | 1017.7 |
| 20260902004504 | 17 | 302 | 0.0 | 1.6 | 0.00 | 0.00 | 0.00 | 67 | 1017.7 |
| 20260902003604 | 17 | 81 | 0.0 | 3.2 | 0.00 | 0.00 | 0.00 | 66 | 1017.9 |
| 20260902002705 | 17 | 7 | 0.0 | 1.6 | 0.00 | 0.00 | 0.00 | 65 | 1017.8 |
| 20260902002018 | 17 | 80 | 0.0 | 1.6 | 0.00 | 0.00 | 0.00 | 65 | 1017.9 |
| 20260902000904 | 17 | 266 | 0.0 | 1.6 | 0.00 | 0.00 | 0.00 | 65 | 1017.8 |
| 20260902000004 | 17 | 268 | 0.0 | 1.6 | 0.00 | 0.00 | 0.00 | 64 | 1017.9 |
| 20260901235404 | 17 | 267 | 0.0 | 3.2 | 0.00 | 0.00 | 0.00 | 64 | 1017.9 |
| 20260901234506 | 17 | 0 | 0.0 | 0.0 | 0.00 | 0.00 | 0.00 | 64 | 1018.0 |
| 20260901233604 | 17 | 277 | 0.0 | 1.6 | 0.00 | 0.00 | 0.00 | 63 | 1017.8 |
| 20260901232703 | 17 | 0 | 0.0 | 0.0 | 0.00 | 0.00 | 0.00 | 62 | 1017.7 |
| 20260901231808 | 17 | 267 | 0.0 | 1.6 | 0.00 | 0.00 | 0.00 | 61 | 1018.0 |
| 20260901230904 | 18 | 266 | 0.0 | 1.6 | 0.00 | 0.00 | 0.00 | 60 | 1017.9 |
| 20260901230007 | 18 | 0 | 0.0 | 0.0 | 0.00 | 0.00 | 0.00 | 59 | 1017.8 |
| 20260901225403 | 18 | 78 | 0.0 | 1.6 | 0.00 | 0.00 | 0.00 | 58 | 1018.0 |
| 20260901224503 | 18 | 0 | 0.0 | 0.0 | 0.00 | 0.00 | 0.00 | 58 | 1018.1 |
| 20260901223817 | 18 | 82 | 0.0 | 3.2 | 0.00 | 0.00 | 0.00 | 58 | 1018.2 |
| 20260901222703 | 18 | 58 | 0.0 | 1.6 | 0.00 | 0.00 | 0.00 | 58 | 1018.2 |
| 20260901221804 | 18 | 76 | 0.0 | 1.6 | 0.00 | 0.00 | 0.00 | 58 | 1018.1 |
| 20260901220903 | 18 | 76 | 0.0 | 4.8 | 0.00 | 0.00 | 0.00 | 58 | 1017.9 |
| 20260901220003 | 18 | 77 | 0.0 | 3.2 | 0.00 | 0.00 | 0.00 | 58 | 1017.8 |
| 20260901215405 | 18 | 77 | 0.0 | 3.2 | 0.00 | 0.00 | 0.00 | 58 | 1018.0 |
| 20260901214503 | 18 | 77 | 0.0 | 3.2 | 0.00 | 0.00 | 0.00 | 57 | 1018.2 |
| 20260901213604 | 18 | 78 | 0.0 | 3.2 | 0.00 | 0.00 | 0.00 | 56 | 1018.1 |
| 20260901212920 | 18 | 77 | 0.0 | 1.6 | 0.00 | 0.00 | 0.00 | 56 | 1018.1 |
| 20260901211804 | 18 | 72 | 0.0 | 1.6 | 0.00 | 0.00 | 0.00 | 55 | 1018.1 |
| 20260901210903 | 18 | 0 | 0.0 | 0.0 | 0.00 | 0.00 | 0.00 | 55 | 1018.0 |
| 20260901210003 | 18 | 73 | 0.0 | 1.6 | 0.00 | 0.00 | 0.00 | 54 | 1018.1 |
| 20260901205404 | 19 | 0 | 0.0 | 0.0 | 0.00 | 0.00 | 0.00 | 54 | 1018.2 |
| 20260901204504 | 19 | 0 | 0.0 | 0.0 | 0.00 | 0.00 | 0.00 | 54 | 1018.1 |
| 20260901203606 | 19 | 0 | 0.0 | 0.0 | 0.00 | 0.00 | 0.00 | 54 | 1017.9 |
| 20260901202704 | 19 | 0 | 0.0 | 0.0 | 0.00 | 0.00 | 0.00 | 53 | 1018.3 |
| 20260901201803 | 19 | 0 | 0.0 | 0.0 | 0.00 | 0.00 | 0.00 | 53 | 1018.2 |
| 20260901201118 | 19 | 0 | 0.0 | 0.0 | 0.00 | 0.00 | 0.00 | 53 | 1018.3 |
| 20260901200217 | 19 | 0 | 0.0 | 0.0 | 0.00 | 0.00 | 0.00 | 53 | 1018.2 |
| 20260901195405 | 19 | 0 | 0.0 | 0.0 | 0.00 | 0.00 | 0.00 | 53 | 1018.2 |
| 20260901194503 | 19 | 62 | 0.0 | 1.6 | 0.00 | 0.00 | 0.00 | 53 | 1018.1 |
| 20260901193604 | 20 | 60 | 0.0 | 1.6 | 0.00 | 0.00 | 0.00 | 53 | 1018.2 |
| 20260901192703 | 20 | 0 | 0.0 | 0.0 | 0.00 | 0.00 | 0.00 | 52 | 1018.0 |
| 20260901191804 | 20 | 0 | 0.0 | 0.0 | 0.00 | 0.00 | 0.00 | 53 | 1018.3 |
| 20260901190903 | 20 | 0 | 0.0 | 0.0 | 0.00 | 0.00 | 0.00 | 52 | 1018.1 |
| 20260901190003 | 20 | 0 | 0.0 | 0.0 | 0.00 | 0.00 | 0.00 | 52 | 1018.2 |
| 20260901185404 | 20 | 0 | 0.0 | 0.0 | 0.00 | 0.00 | 0.00 | 52 | 1018.1 |
| 20260901184503 | 20 | 0 | 0.0 | 0.0 | 0.00 | 0.00 | 0.00 | 52 | 1018.1 |
| 20260901183605 | 20 | 0 | 0.0 | 0.0 | 0.00 | 0.00 | 0.00 | 52 | 1018.4 |
| 20260901182919 | 20 | 0 | 0.0 | 0.0 | 0.00 | 0.00 | 0.00 | 51 | 1018.1 |
| 20260901181803 | 20 | 0 | 0.0 | 0.0 | 0.00 | 0.00 | 0.00 | 51 | 1018.0 |
| 20260901180904 | 20 | 0 | 0.0 | 0.0 | 0.00 | 0.00 | 0.00 | 50 | 1017.7 |
| 20260901180004 | 20 | 267 | 0.0 | 1.6 | 0.00 | 0.00 | 0.00 | 50 | 1017.8 |
| 20260901175405 | 20 | 267 | 0.0 | 1.6 | 0.00 | 0.00 | 0.00 | 49 | 1017.8 |
| 20260901174504 | 21 | 269 | 0.0 | 1.6 | 0.00 | 0.00 | 0.00 | 49 | 1017.8 |
| 20260901173603 | 21 | 269 | 0.0 | 1.6 | 0.00 | 0.00 | 0.00 | 50 | 1017.8 |
| 20260901172704 | 21 | 268 | 0.0 | 1.6 | 0.00 | 0.00 | 0.00 | 49 | 1018.0 |
| 20260901171803 | 21 | 0 | 0.0 | 0.0 | 0.00 | 0.00 | 0.00 | 48 | 1017.8 |
| 20260901171117 | 21 | 287 | 0.0 | 3.2 | 0.00 | 0.00 | 0.00 | 48 | 1017.7 |
| 20260901170218 | 21 | 268 | 0.0 | 3.2 | 0.00 | 0.00 | 0.00 | 46 | 1017.9 |
| 20260901165404 | 21 | 276 | 0.0 | 3.2 | 0.00 | 0.00 | 0.00 | 46 | 1017.8 |
| 20260901164504 | 21 | 286 | 0.0 | 3.2 | 0.00 | 0.00 | 0.00 | 44 | 1017.8 |
| 20260901163604 | 22 | 266 | 0.0 | 3.2 | 0.00 | 0.00 | 0.00 | 43 | 1018.1 |
| 20260901162703 | 22 | 270 | 0.0 | 4.8 | 0.00 | 0.00 | 0.00 | 42 | 1017.9 |
| 20260901161803 | 23 | 269 | 0.0 | 3.2 | 0.00 | 0.00 | 0.00 | 41 | 1018.3 |
| 20260901160908 | 22 | 270 | 0.0 | 4.8 | 0.00 | 0.00 | 0.00 | 42 | 1018.1 |
| 20260901160004 | 23 | 265 | 1.6 | 6.4 | 0.00 | 0.00 | 0.00 | 40 | 1018.2 |
| 20260901155404 | 23 | 273 | 1.6 | 4.8 | 0.00 | 0.00 | 0.00 | 39 | 1018.2 |
| 20260901154503 | 23 | 267 | 1.6 | 3.2 | 0.00 | 0.00 | 0.00 | 40 | 1018.3 |
| 20260901153818 | 22 | 287 | 1.6 | 4.8 | 0.00 | 0.00 | 0.00 | 42 | 1018.2 |
| 20260901152704 | 23 | 266 | 1.6 | 6.4 | 0.00 | 0.00 | 0.00 | 41 | 1018.4 |
| 20260901151803 | 23 | 265 | 1.6 | 4.8 | 0.00 | 0.00 | 0.00 | 41 | 1018.3 |
| 20260901150903 | 23 | 272 | 1.6 | 9.7 | 0.00 | 0.00 | 0.00 | 42 | 1018.3 |
| 20260901150003 | 23 | 272 | 1.6 | 3.2 | 0.00 | 0.00 | 0.00 | 41 | 1018.4 |
| 20260901145403 | 22 | 271 | 1.6 | 3.2 | 0.00 | 0.00 | 0.00 | 43 | 1018.3 |
| 20260901144503 | 22 | 271 | 1.6 | 6.4 | 0.00 | 0.00 | 0.00 | 43 | 1018.4 |
| 20260901143603 | 22 | 281 | 0.0 | 3.2 | 0.00 | 0.00 | 0.00 | 42 | 1018.4 |
| 20260901142704 | 22 | 272 | 1.6 | 4.8 | 0.00 | 0.00 | 0.00 | 43 | 1018.3 |
| 20260901141803 | 22 | 274 | 1.6 | 6.4 | 0.00 | 0.00 | 0.00 | 44 | 1018.4 |
| 20260901140905 | 22 | 284 | 1.6 | 4.8 | 0.00 | 0.00 | 0.00 | 46 | 1018.4 |
| 20260901140003 | 22 | 318 | 0.0 | 3.2 | 0.00 | 0.00 | 0.00 | 45 | 1018.3 |
| 20260901135404 | 22 | 40 | 0.0 | 4.8 | 0.00 | 0.00 | 0.00 | 45 | 1018.4 |
| 20260901134504 | 22 | 283 | 1.6 | 4.8 | 0.00 | 0.00 | 0.00 | 45 | 1018.2 |
| 20260901133604 | 22 | 274 | 1.6 | 4.8 | 0.00 | 0.00 | 0.00 | 44 | 1018.4 |
| 20260901132703 | 22 | 261 | 1.6 | 4.8 | 0.00 | 0.00 | 0.00 | 45 | 1018.4 |
| 20260901131803 | 21 | 280 | 1.6 | 6.4 | 0.00 | 0.00 | 0.00 | 47 | 1018.4 |
| 20260901130905 | 22 | 278 | 1.6 | 4.8 | 0.00 | 0.00 | 0.00 | 45 | 1018.5 |
| 20260901130006 | 22 | 266 | 1.6 | 4.8 | 0.00 | 0.00 | 0.00 | 46 | 1018.5 |
| 20260901125618 | 22 | 264 | 1.6 | 4.8 | 0.00 | 0.00 | 0.00 | 46 | 1018.6 |
| 20260901124505 | 22 | 254 | 0.0 | 4.8 | 0.00 | 0.00 | 0.00 | 46 | 1018.6 |
| 20260901123605 | 22 | 267 | 1.6 | 4.8 | 0.00 | 0.00 | 0.00 | 43 | 1018.7 |
| 20260901122705 | 22 | 275 | 1.6 | 6.4 | 0.00 | 0.00 | 0.00 | 47 | 1018.6 |
| 20260901121806 | 22 | 300 | 1.6 | 6.4 | 0.00 | 0.00 | 0.00 | 45 | 1018.8 |
| 20260901120903 | 22 | 269 | 1.6 | 4.8 | 0.00 | 0.00 | 0.00 | 46 | 1018.9 |
| 20260901120004 | 22 | 268 | 1.6 | 4.8 | 0.00 | 0.00 | 0.00 | 47 | 1018.7 |
| 20260901115618 | 21 | 273 | 1.6 | 3.2 | 0.00 | 0.00 | 0.00 | 48 | 1018.7 |
| 20260901114719 | 21 | 23 | 1.6 | 6.4 | 0.00 | 0.00 | 0.00 | 49 | 1018.8 |
| 20260901113604 | 21 | 268 | 1.6 | 6.4 | 0.00 | 0.00 | 0.00 | 50 | 1018.8 |
| 20260901112703 | 21 | 319 | 1.6 | 4.8 | 0.00 | 0.00 | 0.00 | 49 | 1019.0 |
| 20260901111805 | 21 | 271 | 1.6 | 6.4 | 0.00 | 0.00 | 0.00 | 52 | 1019.2 |
| 20260901110906 | 20 | 276 | 0.0 | 3.2 | 0.00 | 0.00 | 0.00 | 51 | 1018.9 |
| 20260901110004 | 20 | 286 | 0.0 | 3.2 | 0.00 | 0.00 | 0.00 | 53 | 1018.9 |
| 20260901105405 | 20 | 271 | 1.6 | 4.8 | 0.00 | 0.00 | 0.00 | 52 | 1019.0 |
| 20260901104503 | 20 | 357 | 1.6 | 4.8 | 0.00 | 0.00 | 0.00 | 53 | 1019.0 |
| 20260901103604 | 19 | 299 | 1.6 | 4.8 | 0.00 | 0.00 | 0.00 | 56 | 1019.1 |
| 20260901102704 | 19 | 274 | 1.6 | 6.4 | 0.00 | 0.00 | 0.00 | 55 | 1019.1 |
| 20260901101804 | 19 | 270 | 1.6 | 6.4 | 0.00 | 0.00 | 0.00 | 56 | 1019.2 |
| 20260901100904 | 19 | 264 | 1.6 | 6.4 | 0.00 | 0.00 | 0.00 | 57 | 1019.4 |
| 20260901100003 | 19 | 269 | 1.6 | 4.8 | 0.00 | 0.00 | 0.00 | 58 | 1019.5 |
| 20260901095403 | 19 | 273 | 1.6 | 4.8 | 0.00 | 0.00 | 0.00 | 59 | 1019.4 |
| 20260901094503 | 18 | 274 | 1.6 | 4.8 | 0.00 | 0.00 | 0.00 | 59 | 1019.5 |
| 20260901093605 | 18 | 269 | 1.6 | 4.8 | 0.00 | 0.00 | 0.00 | 59 | 1019.4 |
| 20260901092705 | 18 | 283 | 1.6 | 3.2 | 0.00 | 0.00 | 0.00 | 61 | 1019.3 |
| 20260901092016 | 18 | 275 | 1.6 | 3.2 | 0.00 | 0.00 | 0.00 | 61 | 1019.4 |
| 20260901090904 | 18 | 269 | 1.6 | 4.8 | 0.00 | 0.00 | 0.00 | 61 | 1019.2 |
| 20260901090004 | 18 | 272 | 0.0 | 4.8 | 0.00 | 0.00 | 0.00 | 62 | 1019.2 |
| 20260901085404 | 18 | 271 | 1.6 | 6.4 | 0.00 | 0.00 | 0.00 | 65 | 1019.2 |
| 20260901084504 | 18 | 268 | 1.6 | 4.8 | 0.00 | 0.00 | 0.00 | 65 | 1019.3 |
| 20260901083605 | 18 | 266 | 1.6 | 4.8 | 0.00 | 0.00 | 0.00 | 65 | 1019.2 |
| 20260901082704 | 18 | 262 | 0.0 | 3.2 | 0.00 | 0.00 | 0.00 | 65 | 1019.0 |
| 20260901081803 | 18 | 272 | 1.6 | 4.8 | 0.00 | 0.00 | 0.00 | 68 | 1019.0 |
| 20260901080904 | 17 | 272 | 1.6 | 6.4 | 0.00 | 0.00 | 0.00 | 70 | 1018.9 |
| 20260901080003 | 17 | 271 | 0.0 | 3.2 | 0.00 | 0.00 | 0.00 | 72 | 1018.7 |
| 20260901075404 | 17 | 271 | 1.6 | 3.2 | 0.00 | 0.00 | 0.00 | 72 | 1018.9 |
| 20260901074503 | 16 | 270 | 0.0 | 3.2 | 0.00 | 0.00 | 0.00 | 74 | 1018.6 |
| 20260901073606 | 16 | 269 | 0.0 | 3.2 | 0.00 | 0.00 | 0.00 | 77 | 1018.8 |
| 20260901072704 | 15 | 275 | 0.0 | 3.2 | 0.00 | 0.00 | 0.00 | 80 | 1018.8 |
| 20260901071803 | 14 | 272 | 0.0 | 3.2 | 0.00 | 0.00 | 0.00 | 82 | 1018.8 |
| 20260901070904 | 14 | 264 | 0.0 | 4.8 | 0.00 | 0.00 | 0.00 | 83 | 1018.7 |
| 20260901070003 | 13 | 262 | 0.0 | 4.8 | 0.00 | 0.00 | 0.00 | 83 | 1018.7 |
| 20260901065405 | 13 | 263 | 0.0 | 3.2 | 0.00 | 0.00 | 0.00 | 83 | 1018.7 |
| 20260901064719 | 13 | 268 | 0.0 | 3.2 | 0.00 | 0.00 | 0.00 | 83 | 1018.7 |
| 20260901063604 | 13 | 188 | 0.0 | 3.2 | 0.00 | 0.00 | 0.00 | 84 | 1018.6 |
| 20260901062703 | 13 | 248 | 0.0 | 3.2 | 0.00 | 0.00 | 0.00 | 86 | 1018.5 |
| 20260901061803 | 12 | 265 | 0.0 | 3.2 | 0.00 | 0.00 | 0.00 | 86 | 1018.4 |
| 20260901060904 | 12 | 0 | 0.0 | 0.0 | 0.00 | 0.00 | 0.00 | 86 | 1018.3 |
| 20260901060004 | 12 | 139 | 0.0 | 3.2 | 0.00 | 0.00 | 0.00 | 86 | 1018.3 |
| 20260901055403 | 12 | 249 | 0.0 | 3.2 | 0.00 | 0.00 | 0.00 | 86 | 1018.1 |
| 20260901054504 | 12 | 271 | 0.0 | 3.2 | 0.00 | 0.00 | 0.00 | 86 | 1018.2 |
| 20260901053820 | 12 | 262 | 0.0 | 3.2 | 0.00 | 0.00 | 0.00 | 85 | 1017.9 |
| 20260901052917 | 12 | 261 | 0.0 | 3.2 | 0.00 | 0.00 | 0.00 | 85 | 1017.9 |
| 20260901051803 | 12 | 269 | 0.0 | 1.6 | 0.00 | 0.00 | 0.00 | 85 | 1017.9 |
| 20260901051118 | 12 | 267 | 0.0 | 1.6 | 0.00 | 0.00 | 0.00 | 85 | 1017.6 |